GW5351 Weather Reports


time (UTC)temp
C
wind
direction
speed
KPH
gust
KPH
rain 1hr
cm
rain 24hr
cm
rain mn
cm
humidity
%
barometer
mb
20260504223223 26 154 9.7 12.9 0.00 0.00 0.00 62 1011.5
20260504222721 26 187 6.4 11.3 0.00 0.00 0.00 62 1011.6
20260504222217 27 208 3.2 6.4 0.00 0.00 0.00 61 1011.9
20260504221714 27 220 3.2 6.4 0.00 0.00 0.00 61 1011.8
20260504221211 26 187 1.6 9.7 0.00 0.00 0.00 61 1011.8
20260504220708 26 221 3.2 9.7 0.00 0.00 0.00 61 1011.8
20260504220206 26 213 6.4 12.9 0.00 0.00 0.00 61 1012.0
20260504215702 26 152 4.8 9.7 0.00 0.00 0.00 61 1011.8
20260504215159 27 173 6.4 14.5 0.00 0.00 0.00 60 1012.1
20260504214655 27 231 4.8 6.4 0.00 0.00 0.00 59 1012.1
20260504214151 27 231 1.6 11.3 0.00 0.00 0.00 60 1011.9
20260504213648 27 188 3.2 9.7 0.00 0.00 0.00 59 1012.3
20260504213145 27 151 3.2 9.7 0.00 0.00 0.00 59 1012.4
20260504212641 27 197 3.2 3.2 0.00 0.00 0.00 58 1012.1
20260504212138 27 240 8.0 14.5 0.00 0.00 0.00 57 1012.3
20260504211636 27 209 3.2 6.4 0.00 0.00 0.00 58 1012.4
20260504211132 27 198 6.4 11.3 0.00 0.00 0.00 58 1012.6
20260504210630 27 102 6.4 11.3 0.00 0.00 0.00 58 1012.5
20260504210125 28 242 9.7 14.5 0.00 0.00 0.00 56 1012.7
20260504205623 29 174 3.2 11.3 0.00 0.00 0.00 54 1012.7
20260504205121 28 225 1.6 9.7 0.00 0.00 0.00 56 1012.7
20260504204619 27 104 4.8 9.7 0.00 0.00 0.00 56 1012.9
20260504204118 27 170 4.8 6.4 0.00 0.00 0.00 56 1012.9
20260504203616 27 227 1.6 6.4 0.00 0.00 0.00 58 1013.0
20260504203114 27 211 4.8 12.9 0.00 0.00 0.00 58 1013.0
20260504202609 27 264 3.2 6.4 0.00 0.00 0.00 58 1013.1
20260504202106 27 200 11.3 14.5 0.00 0.00 0.00 57 1013.2
20260504201603 27 223 6.4 9.7 0.00 0.00 0.00 57 1013.3
20260504201100 27 225 4.8 6.4 0.00 0.00 0.00 58 1013.6
20260504200556 27 250 4.8 6.4 0.00 0.00 0.00 58 1013.5
20260504200053 27 247 8.0 12.9 0.00 0.00 0.00 57 1013.7
20260504195549 26 188 1.6 12.9 0.00 0.00 0.00 58 1013.8
20260504195046 26 270 6.4 12.9 0.00 0.00 0.00 58 1013.9
20260504194542 27 175 3.2 9.7 0.00 0.00 0.00 58 1014.0
20260504194038 27 208 3.2 6.4 0.00 0.00 0.00 58 1014.2
20260504193535 27 182 4.8 9.7 0.00 0.00 0.00 58 1014.0
20260504193034 27 168 3.2 6.4 0.00 0.00 0.00 56 1014.2
20260504192531 27 222 0.0 6.4 0.00 0.00 0.00 59 1014.0
20260504192029 26 221 3.2 11.3 0.00 0.00 0.00 59 1014.1
20260504191527 27 243 8.0 17.7 0.00 0.00 0.00 58 1014.3
20260504191023 27 219 1.6 4.8 0.00 0.00 0.00 58 1014.5
20260504190519 27 235 4.8 9.7 0.00 0.00 0.00 57 1014.7
20260504190015 26 209 6.4 6.4 0.00 0.00 0.00 57 1014.5
20260504185512 27 73 3.2 14.5 0.00 0.00 0.00 57 1014.6
20260504185009 27 212 1.6 4.8 0.00 0.00 0.00 56 1014.5
20260504184504 27 210 3.2 4.8 0.00 0.00 0.00 56 1014.6
20260504184000 27 208 3.2 9.7 0.00 0.00 0.00 55 1014.8
20260504183457 26 234 6.4 11.3 0.00 0.00 0.00 56 1015.0
20260504182955 26 192 1.6 9.7 0.00 0.00 0.00 55 1014.8
20260504182452 27 207 6.4 12.9 0.00 0.00 0.00 55 1015.0
20260504181949 26 150 3.2 9.7 0.00 0.00 0.00 58 1015.1
20260504181446 26 220 6.4 14.5 0.00 0.00 0.00 57 1014.9
20260504180944 26 218 4.8 14.5 0.00 0.00 0.00 59 1015.1
20260504180443 26 141 1.6 12.9 0.00 0.00 0.00 60 1015.0
20260504175941 26 225 3.2 9.7 0.00 0.00 0.00 59 1015.2
20260504175438 26 259 6.4 9.7 0.00 0.00 0.00 58 1015.4
20260504174936 26 241 4.8 16.1 0.00 0.00 0.00 59 1015.4
20260504174433 26 213 6.4 11.3 0.00 0.00 0.00 58 1015.3
20260504173930 26 218 8.0 11.3 0.00 0.00 0.00 59 1015.4
20260504173426 25 255 3.2 6.4 0.00 0.00 0.00 60 1015.6
20260504172924 25 201 6.4 9.7 0.00 0.00 0.00 60 1015.4
20260504172420 25 161 3.2 4.8 0.00 0.00 0.00 61 1015.4
20260504171916 25 175 9.7 14.5 0.00 0.00 0.00 59 1015.8
20260504171414 26 142 3.2 9.7 0.00 0.00 0.00 60 1015.8
20260504170910 26 232 6.4 11.3 0.00 0.00 0.00 58 1015.8
20260504170407 25 252 8.0 12.9 0.00 0.00 0.00 58 1016.0
20260504160326 25 23 3.2 9.7 0.00 0.00 0.00 62 1016.6
20260504150750 23 201 3.2 11.3 0.00 0.00 0.00 66 1016.9
20260504150247 23 201 4.8 11.3 0.00 0.00 0.00 66 1017.1
20260504141217 21 213 1.6 6.4 0.00 0.00 0.00 68 1016.9
20260504140714 21 227 4.8 9.7 0.00 0.00 0.00 68 1016.9
20260504140209 21 201 1.6 4.8 0.00 0.00 0.00 70 1016.9
20260504130637 16 197 0.0 0.0 0.00 0.00 0.00 83 1016.5
20260504130134 16 197 1.6 1.6 0.00 0.00 0.00 85 1016.7
20260504110525 12 198 0.0 0.0 0.00 0.00 0.00 94 1016.2
20260504100442 12 198 0.0 0.0 0.00 0.00 0.00 95 1016.7
20260504081840 13 197 0.0 0.0 0.00 0.00 0.00 90 1017.4
20260504081337 13 197 0.0 0.0 0.00 0.00 0.00 91 1017.4
20260504080833 13 197 0.0 0.0 0.00 0.00 0.00 90 1017.4
20260504080330 13 197 0.0 0.0 0.00 0.00 0.00 89 1017.5
20260504070257 15 197 0.0 0.0 0.00 0.00 0.00 86 1018.3
20260504060218 15 197 0.0 0.0 0.00 0.00 0.00 79 1018.8
20260504050646 16 197 0.0 0.0 0.00 0.00 0.00 74 1019.1
20260504050143 16 197 0.0 0.0 0.00 0.00 0.00 72 1019.1
20260504045640 17 197 0.0 0.0 0.00 0.00 0.00 72 1019.1
20260504045140 17 197 0.0 0.0 0.00 0.00 0.00 71 1019.2
20260504044638 17 197 0.0 0.0 0.00 0.00 0.00 70 1019.3
20260504044135 17 220 0.0 0.0 0.00 0.00 0.00 71 1019.2
20260504043632 17 220 0.0 0.0 0.00 0.00 0.00 69 1019.4
20260504043129 17 198 0.0 0.0 0.00 0.00 0.00 68 1019.3
20260504042626 17 187 0.0 1.6 0.00 0.00 0.00 67 1019.2
20260504042123 17 216 0.0 0.0 0.00 0.00 0.00 67 1019.3
20260504041618 17 217 0.0 1.6 0.00 0.00 0.00 67 1019.2
20260504041115 18 215 0.0 1.6 0.00 0.00 0.00 67 1019.4
20260504040612 18 214 0.0 3.2 0.00 0.00 0.00 66 1019.4
20260504040109 18 191 0.0 0.0 0.00 0.00 0.00 65 1019.4
20260504035606 18 220 0.0 0.0 0.00 0.00 0.00 66 1019.4
20260504035102 18 229 1.6 1.6 0.00 0.00 0.00 65 1019.4
20260504034600 18 192 0.0 0.0 0.00 0.00 0.00 64 1019.4
20260504034056 18 191 0.0 1.6 0.00 0.00 0.00 64 1019.3
20260504033554 18 219 0.0 1.6 0.00 0.00 0.00 64 1019.3
20260504033052 19 221 1.6 1.6 0.00 0.00 0.00 62 1019.6
20260504032549 19 191 0.0 1.6 0.00 0.00 0.00 61 1019.3
20260504032045 19 197 0.0 0.0 0.00 0.00 0.00 61 1019.2
20260504031542 19 197 0.0 1.6 0.00 0.00 0.00 60 1019.1
20260504031038 19 203 1.6 3.2 0.00 0.00 0.00 59 1019.1
20260504030536 19 191 0.0 4.8 0.00 0.00 0.00 60 1019.1
20260504030032 20 190 3.2 3.2 0.00 0.00 0.00 59 1019.0
20260504025529 20 191 1.6 3.2 0.00 0.00 0.00 59 1019.0
20260504025026 20 189 3.2 4.8 0.00 0.00 0.00 58 1018.8
20260504024523 20 210 4.8 6.4 0.00 0.00 0.00 58 1019.0
20260504024020 20 156 3.2 6.4 0.00 0.00 0.00 59 1018.9
20260504023516 20 214 0.0 4.8 0.00 0.00 0.00 59 1019.0
20260504023012 20 197 0.0 3.2 0.00 0.00 0.00 59 1018.9
20260504022508 20 190 0.0 1.6 0.00 0.00 0.00 59 1018.9
20260504022005 20 210 0.0 4.8 0.00 0.00 0.00 58 1018.8
20260504021503 20 262 1.6 4.8 0.00 0.00 0.00 58 1018.8
20260504020959 20 204 1.6 3.2 0.00 0.00 0.00 59 1018.7
20260504020456 20 209 0.0 3.2 0.00 0.00 0.00 59 1018.6
20260504015953 20 191 0.0 0.0 0.00 0.00 0.00 60 1018.7
20260504015449 20 191 0.0 0.0 0.00 0.00 0.00 61 1018.5
20260504014945 20 191 0.0 0.0 0.00 0.00 0.00 57 1018.4
20260504014441 20 191 0.0 0.0 0.00 0.00 0.00 56 1018.4
20260504013938 21 191 0.0 0.0 0.00 0.00 0.00 55 1018.3
20260504013437 21 190 0.0 1.6 0.00 0.00 0.00 54 1018.4
20260504012932 21 187 0.0 3.2 0.00 0.00 0.00 53 1018.3
20260504012431 21 209 0.0 1.6 0.00 0.00 0.00 52 1018.3
20260504011928 21 186 1.6 1.6 0.00 0.00 0.00 51 1018.2
20260504011424 21 172 1.6 3.2 0.00 0.00 0.00 51 1018.2
20260504010920 22 204 1.6 3.2 0.00 0.00 0.00 50 1018.2
20260504010416 21 211 3.2 4.8 0.00 0.00 0.00 50 1018.2
20260504005913 21 191 0.0 0.0 0.00 0.00 0.00 51 1018.2
20260504005409 22 191 0.0 0.0 0.00 0.00 0.00 50 1018.3
20260504004907 22 191 0.0 0.0 0.00 0.00 0.00 50 1018.2
20260504004405 22 191 0.0 0.0 0.00 0.00 0.00 48 1018.2
20260504003901 23 191 0.0 0.0 0.00 0.00 0.00 48 1018.2
20260504003358 23 190 0.0 1.6 0.00 0.00 0.00 47 1018.3
20260504002854 23 190 0.0 1.6 0.00 0.00 0.00 46 1018.4
20260504002351 24 220 3.2 3.2 0.00 0.00 0.00 43 1018.4
20260504001849 25 191 0.0 0.0 0.00 0.00 0.00 43 1018.4
20260504001346 25 166 3.2 3.2 0.00 0.00 0.00 42 1018.2
20260504000843 25 190 1.6 6.4 0.00 0.00 0.00 41 1018.2
20260504000340 25 170 1.6 3.2 0.00 0.00 0.00 40 1018.4
20260503235837 25 207 0.0 4.8 0.00 0.00 0.00 40 1018.4
20260503235335 25 173 1.6 3.2 0.00 0.00 0.00 39 1018.4
20260503234832 26 218 3.2 4.8 0.00 0.00 0.00 38 1018.6
20260503234330 26 237 1.6 1.6 0.00 0.00 0.00 37 1018.3
20260503233827 26 221 1.6 6.4 0.00 0.00 0.00 39 1018.4
20260503233323 26 205 1.6 1.6 0.00 0.00 0.00 38 1018.5
20260503232820 25 210 3.2 6.4 0.00 0.00 0.00 37 1018.5
20260503232317 26 234 1.6 3.2 0.00 0.00 0.00 39 1018.5
20260503231815 26 177 1.6 3.2 0.00 0.00 0.00 36 1018.5
20260503231312 27 199 1.6 6.4 0.00 0.00 0.00 36 1018.7
20260503230808 27 207 3.2 4.8 0.00 0.00 0.00 36 1018.5
20260503230305 26 210 0.0 1.6 0.00 0.00 0.00 36 1018.7
20260503225803 26 229 0.0 4.8 0.00 0.00 0.00 38 1018.7
20260503225258 26 156 3.2 11.3 0.00 0.00 0.00 36 1018.7
20260503224755 26 206 3.2 4.8 0.00 0.00 0.00 37 1018.7
20260503224252 26 155 3.2 4.8 0.00 0.00 0.00 36 1019.0
20260503223750 26 167 6.4 6.4 0.00 0.00 0.00 36 1018.9